CYVP

Kuujjuaq Airport

ICAO Code CYVP
IATA Code YVP
Name Kuujjuaq Airport
Location Kuujjuaq, Quebec, CA
Elevation 131 Feet / 39.9 Meters
Latitude 58.09500000
Longitude -68.42222222
METAR CYVP 260600Z 28008KT 15SM BKN016 BKN150 01/M01 A3010 RMK SC6AC1 SLP199
Extra information Display Charts and CFS
Display NOTAMS
Runway Length Width Surface Elevation
07 6000 ft 150 ft ASP 81 ft
13 5001 ft 100 ft GVL 130 ft
25 6000 ft 150 ft ASP 114 ft
31 5001 ft 100 ft GVL 63 ft